Location: Petruro
(41.0333°N, 14.7833°E)
Time: 09:47:29
(UTC+00:00)

MSX - Pass Details

Date: 20 June 2021
Orbit: 894 x 907 km, 98.8° (Epoch: 03 August)

Event Time Altitude Azimuth Distance (km) Brightness Sun altitude
Rises 02:11:54 0° 11° (N) 3,536 8.0 -12.0°
Reaches altitude 10° 02:14:19 10° 10° (N) 2,589 7.1 -11.7°
Maximum altitude 02:20:04 73° 287° (WNW) 941 3.9 -10.9°
Drops below altitude 10° 02:25:46 10° 203° (SSW) 2,564 5.6 -10.1°
Enters shadow 02:25:46 10° 203° (SSW) 2,565 5.6 -10.1°
